940  
ASUS45 KSLC 180010  
RWRUT  
 
UTAH REGIONAL WEATHER ROUNDUP  
NATIONAL WEATHER SERVICE SALT LAKE CITY UT  
600 PM MDT SUN JUN 17 2018  
 
UTZ001>011-023>025-180100-  
 
NORTHERN UTAH  
 
CITY SKY/WX TMP DP RH WIND PRES REMARKS
 
BRIGHAM CITY CLOUDY 87 28 12 S12 29.65F  
HILL AFB TSTM 74 48 38 E21G33 29.68S  
LOGAN LGT RAIN 79 49 34 SE15G36 29.68R  
OGDEN TSTM 80 45 28 E8 29.65F  
SALT LAKE CITY PTSUNNY 90 38 16 S17G30 29.61F  
TOOELE VALLEY MOSUNNY 88 39 18 S26G36 29.65S  
WENDOVER CLOUDY 72 44 36 NW32G46 29.68R  
HEBER CITY HVY RAIN 72 48 43 S10G18 29.77R  
WEST JORDAN MOSUNNY 88 45 22 S25G31 29.66S  
 

 
 
UTZ011>015-024>027-180100-  
 
CENTRAL/NORTHEAST UTAH  
 
CITY SKY/WX TMP DP RH WIND PRES REMARKS
 
PROVO AIRPORT PTSUNNY 82 49 31 SW10 29.67F  
MOAB/CANYONLAN PTSUNNY 89 40 17 S14G22 29.74F  
DELTA SUNNY 84 30 14 SW38G47 29.71F  
PRICE MOSUNNY 80 40 23 S17G26 29.82F  
ROOSEVELT MOSUNNY 81 50 34 E6 29.78F  
VERNAL MOSUNNY 82 48 30 SE9 29.78F  
 

 
 
UTZ013>016-019>022-027-180100-  
 
SOUTHERN UTAH  
 
CITY SKY/WX TMP DP RH WIND PRES REMARKS
 
BRYCE CANYON MOSUNNY 71 31 22 S16G33 30.00F  
CEDAR CITY MOSUNNY 79 32 18 SW31G45 29.82S  
MILFORD SUNNY 83 32 16 SW25G38 29.75F  
ST GEORGE MOCLDY 91 34 13 SW29G40 29.68F  
HANKSVILLE SUNNY 90 32 12 S13G28 29.77F  
BLANDING N/A 80 38 22 S17G25 30.00F  
 

 
 
REGIONAL REPORTS COLORADO/ARIZONA  
 
CITY SKY/WX TMP DP RH WIND PRES REMARKS
 
CRAIG, CO MOSUNNY 71 54 54 E15 29.95F  
GRAND JUNCTION LGT RAIN 84 50 30 SE6 29.80F  
RIFLE, CO PTSUNNY 72 56 57 CALM 29.90F  
MONTROSE, CO PTSUNNY 75 49 39 SE13 29.94S  
CORTEZ, CO SUNNY 77 50 38 SE10 29.98F  
COLORADO CITY N/A 86 32 14 SW20G29 29.87F  
PAGE, AZ SUNNY 89 34 14 W13G24 29.78F  
GRAND CANYON SUNNY 74 29 19 SW21G32 30.02F  
KINGMAN, AZ SUNNY 87 38 17 S24G43 29.83S  
FLAGSTAFF, AZ SUNNY 68 36 30 SW24G32 30.09S  
 

 
 
REGIONAL REPORTS NEVADA/IDAHO/WYOMING  
 
CITY SKY/WX TMP DP RH WIND PRES REMARKS
 
LAS VEGAS, NV SUNNY 90 23 9 SW21G36 29.67R  
ELY, NY PTSUNNY 72 12 10 SW31G43 29.80R  
ELKO, NV CLOUDY 53 47 79 S12 29.90R  
POCATELLO, ID MOSUNNY 69 51 52 W31G40 29.77R  
BURLEY, ID PTSUNNY 59 50 72 W13G26 29.80R  
FORT BRIDGER, N/A 65 51 59 N23G32 29.93R  
EVANSTON, WY LGT RAIN 60 47 61 S20G49 29.87F  
ROCK SPRINGS, MOSUNNY 66 50 56 E29G37 29.96S  
KEMMERER, WY CLOUDY 52 46 82 NE35G43 29.94R  
 

 
 
 
CLICK HERE TO GO TO PREVIOUS BULLETINS.

The Nexlab UT Page Main Text Page